Location: Baia Mare
(47.6567°N, 23.5850°E)
Time: 06:48:07
(UTC+03:00)

ISS - Pass Details

Date: 18 March 2020
Orbit: 417 x 423 km, 51.6° (Epoch: 29 March)

Event Time Altitude Azimuth Distance (km) Brightness Sun altitude
Rises 20:43:58 0° 224° (SW) 2,348 0.3 -21.7°
Reaches altitude 10° 20:46:07 10° 217° (SW) 1,489 -0.9 -22.0°
Enters shadow 20:46:31 13° 214° (SW) 1,333 -1.1 -22.1°
